����,���ϕ���(m/s),���ϕ���,�ő�u�ԕ���(m/s),�ő啗��������,�C��(��),���x(%),10���Ԉړ��ώZ�J��(mm),1���Ԉړ��ώZ�J��(mm),���J��(mm),�݌v�J��(mm)
2021-04-12T00:00:00+09:00,1,���k��,2,��,7.2,83.5,0,0,0,0
2021-04-12T00:01:00+09:00,1,���k��,2,��,7.2,83.6,0,0,0,0
2021-04-12T00:02:00+09:00,1,���k��,2,��,7.1,83.4,0,0,0,0
2021-04-12T00:03:00+09:00,1,��,2,��,7,83.5,0,0,0,0
2021-04-12T00:04:00+09:00,1,��,2,��,7,83.7,0,0,0,0
2021-04-12T00:05:00+09:00,1,��,2,��,7.1,84.1,0,0,0,0
2021-04-12T00:06:00+09:00,1,��,2,��,7.1,84.3,0,0,0,0
2021-04-12T00:07:00+09:00,1,���쓌,2,��,7,83.8,0,0,0,0
2021-04-12T00:08:00+09:00,1,���쓌,2,��,6.9,83.6,0,0,0,0
2021-04-12T00:09:00+09:00,0.9,�쓌,1.9,���쓌,6.9,83.8,0,0,0,0
2021-04-12T00:10:00+09:00,0.9,�쓌,1.7,��,6.9,83.8,0,0,0,0
2021-04-12T00:11:00+09:00,0.9,��쓌,1.7,��,6.9,84,0,0,0,0
2021-04-12T00:12:00+09:00,0.9,��쓌,1.8,��,6.9,84.1,0,0,0,0
2021-04-12T00:13:00+09:00,0.8,��쓌,1.8,��,6.8,84.3,0,0,0,0
2021-04-12T00:14:00+09:00,0.8,��,1.8,��,6.8,84.5,0,0,0,0
2021-04-12T00:15:00+09:00,0.8,��쓌,1.8,��,6.8,84.6,0,0,0,0
2021-04-12T00:16:00+09:00,0.8,��쓌,1.8,��,7,85.2,0,0,0,0
2021-04-12T00:17:00+09:00,0.8,��쓌,1.8,��,7,85.2,0,0,0,0
2021-04-12T00:18:00+09:00,0.7,��쓌,1.8,��,7.1,85.1,0,0,0,0
2021-04-12T00:19:00+09:00,0.7,��쓌,1.8,��,7,84.7,0,0,0,0
2021-04-12T00:20:00+09:00,0.6,��쓌,1.8,��,6.9,84.3,0,0,0,0
2021-04-12T00:21:00+09:00,0.6,��쓌,1.8,��,7.3,85.2,0,0,0,0
2021-04-12T00:22:00+09:00,0.5,��,1.5,��쓌,7,84.3,0,0,0,0
2021-04-12T00:23:00+09:00,0.5,��,1.5,��쓌,7,83.6,0,0,0,0
2021-04-12T00:24:00+09:00,0.5,��,1.5,��쓌,7.1,84.3,0,0,0,0
2021-04-12T00:25:00+09:00,0.4,��,1.5,��쓌,7,84,0,0,0,0
2021-04-12T00:26:00+09:00,0.5,��,1.5,�쓌,6.9,83.9,0,0,0,0
2021-04-12T00:27:00+09:00,0.5,��,1.5,�쓌,6.9,84.1,0,0,0,0
2021-04-12T00:28:00+09:00,0.7,��쓌,1.8,�쓌,7,84.8,0,0,0,0
2021-04-12T00:29:00+09:00,0.7,��쓌,1.8,�쓌,7,84.9,0,0,0,0
2021-04-12T00:30:00+09:00,0.7,��쓌,1.8,�쓌,7,84.5,0,0,0,0
2021-04-12T00:31:00+09:00,0.8,�쓌,1.8,�쓌,6.8,83.9,0,0,0,0
2021-04-12T00:32:00+09:00,0.8,���쓌,1.8,�쓌,6.7,83.8,0,0,0,0
2021-04-12T00:33:00+09:00,1,���쓌,1.9,���k��,6.7,84.1,0,0,0,0
2021-04-12T00:34:00+09:00,1.1,���쓌,1.9,���k��,6.7,84.6,0,0,0,0
2021-04-12T00:35:00+09:00,1.2,��,1.9,���k��,6.8,85.1,0,0,0,0
2021-04-12T00:36:00+09:00,1.2,��,1.9,���k��,6.8,84.8,0,0,0,0
2021-04-12T00:37:00+09:00,1.2,��,1.9,���k��,6.8,84.2,0,0,0,0
2021-04-12T00:38:00+09:00,1.1,��,1.9,���k��,6.8,83.9,0,0,0,0
2021-04-12T00:39:00+09:00,1.2,���k��,1.9,���k��,6.8,83.6,0,0,0,0
2021-04-12T00:40:00+09:00,1.2,���k��,1.9,���k��,6.8,83.5,0,0,0,0
2021-04-12T00:41:00+09:00,1.2,���k��,1.9,���k��,6.9,83.5,0,0,0,0
2021-04-12T00:42:00+09:00,1.2,���k��,1.9,���k��,6.8,83.5,0,0,0,0
2021-04-12T00:43:00+09:00,1.1,���k��,1.8,���k��,6.8,82.7,0,0,0,0
2021-04-12T00:44:00+09:00,1,��,1.7,���k��,6.9,82.8,0,0,0,0
2021-04-12T00:45:00+09:00,0.9,��,1.7,���k��,7.1,83.3,0,0,0,0
2021-04-12T00:46:00+09:00,0.8,��,1.7,���k��,7.2,83.4,0,0,0,0
2021-04-12T00:47:00+09:00,0.7,���쓌,1.6,��,7.3,83.1,0,0,0,0
2021-04-12T00:48:00+09:00,0.6,�쓌,1.6,��,7.1,82.4,0,0,0,0
2021-04-12T00:49:00+09:00,0.5,��쓌,1.6,��,7,82.4,0,0,0,0
2021-04-12T00:50:00+09:00,0.4,��,1.3,��,7.1,82.7,0,0,0,0
2021-04-12T00:51:00+09:00,0.4,��,1.3,��,7.1,82.8,0,0,0,0
2021-04-12T00:52:00+09:00,0.3,��쐼,1.3,��,7.2,82.8,0,0,0,0
2021-04-12T00:53:00+09:00,0.3,��쐼,0.8,��,7,82.3,0,0,0,0
2021-04-12T00:54:00+09:00,0.3,��쐼,0.8,��,6.9,82.4,0,0,0,0
2021-04-12T00:55:00+09:00,0.3,��쐼,0.8,��,7.1,83.2,0,0,0,0
2021-04-12T00:56:00+09:00,0.3,��쐼,0.8,��,7.2,83.2,0,0,0,0
2021-04-12T00:57:00+09:00,0.3,��쐼,0.8,��,7.2,82.9,0,0,0,0
2021-04-12T00:58:00+09:00,0.3,��쐼,0.8,��,7,82.4,0,0,0,0
2021-04-12T00:59:00+09:00,0.3,��쐼,0.8,��,6.9,82.2,0,0,0,0
2021-04-12T01:00:00+09:00,0.2,�É�,0.8,��,6.9,82.3,0,0,0,0
2021-04-12T01:01:00+09:00,0.2,�É�,0.8,��,6.8,82.2,0,0,0,0
2021-04-12T01:02:00+09:00,0.2,�É�,0.8,��,6.7,82.8,0,0,0,0
2021-04-12T01:03:00+09:00,0.2,�É�,0.6,��쓌,7,83.7,0,0,0,0
2021-04-12T01:04:00+09:00,0.2,�É�,0.6,��쓌,7.1,83.8,0,0,0,0
2021-04-12T01:05:00+09:00,0.1,�É�,0.6,��쓌,7.1,83.5,0,0,0,0
2021-04-12T01:06:00+09:00,0.1,�É�,0.6,��쓌,7,83.1,0,0,0,0
2021-04-12T01:07:00+09:00,0.1,�É�,0.6,��쓌,7.1,82.9,0,0,0,0
2021-04-12T01:08:00+09:00,0.1,�É�,0.6,��쓌,6.8,82.3,0,0,0,0
2021-04-12T01:09:00+09:00,0.1,�É�,0.7,���k��,6.7,81.3,0,0,0,0
2021-04-12T01:10:00+09:00,0.2,�É�,0.9,���k��,6.6,81.6,0,0,0,0
2021-04-12T01:11:00+09:00,0.3,��쓌,0.9,���k��,6.7,82.2,0,0,0,0
2021-04-12T01:12:00+09:00,0.3,�쓌,0.9,���k��,6.6,82.3,0,0,0,0
2021-04-12T01:13:00+09:00,0.4,���쓌,0.9,���k��,6.4,81.6,0,0,0,0
2021-04-12T01:14:00+09:00,0.4,��,0.9,���k��,6.4,81.8,0,0,0,0
2021-04-12T01:15:00+09:00,0.4,��,0.9,���k��,6.5,82.5,0,0,0,0
2021-04-12T01:16:00+09:00,0.4,���k��,0.9,���k��,6.5,82.6,0,0,0,0
2021-04-12T01:17:00+09:00,0.4,���k��,0.9,���k��,6.6,83.3,0,0,0,0
2021-04-12T01:18:00+09:00,0.4,���k��,0.9,���k��,6.8,84.4,0,0,0,0
2021-04-12T01:19:00+09:00,0.4,���k��,0.9,���k��,6.9,84.2,0,0,0,0
2021-04-12T01:20:00+09:00,0.3,���k��,0.9,���k��,6.9,83.9,0,0,0,0
2021-04-12T01:21:00+09:00,0.2,�É�,0.8,���k��,6.9,83.5,0,0,0,0
2021-04-12T01:22:00+09:00,0.2,�É�,0.8,���k��,7.1,83.7,0,0,0,0
2021-04-12T01:23:00+09:00,0.2,�É�,0.8,���k��,6.9,82.7,0,0,0,0
2021-04-12T01:24:00+09:00,0.2,�É�,0.8,���쓌,6.9,82.6,0,0,0,0
2021-04-12T01:25:00+09:00,0.2,�É�,0.8,���쓌,6.7,81.5,0,0,0,0
2021-04-12T01:26:00+09:00,0.2,�É�,0.8,���쓌,6.7,81.9,0,0,0,0
2021-04-12T01:27:00+09:00,0.2,�É�,0.8,���쓌,6.8,82.2,0,0,0,0
2021-04-12T01:28:00+09:00,0.2,�É�,0.8,���쓌,6.9,82.2,0,0,0,0
2021-04-12T01:29:00+09:00,0.2,�É�,0.8,���쓌,6.8,81.6,0,0,0,0
2021-04-12T01:30:00+09:00,0.2,�É�,0.8,���쓌,6.7,81.4,0,0,0,0
2021-04-12T01:31:00+09:00,0.2,�É�,0.8,���쓌,6.8,82,0,0,0,0
2021-04-12T01:32:00+09:00,0.2,�É�,0.8,���쓌,6.8,82,0,0,0,0
2021-04-12T01:33:00+09:00,0.1,�É�,0.5,���쓌,6.7,81.2,0,0,0,0
2021-04-12T01:34:00+09:00,0.1,�É�,0.4,�k��,6.5,81.1,0,0,0,0
2021-04-12T01:35:00+09:00,0.1,�É�,0.7,���k��,6.3,80.9,0,0,0,0
2021-04-12T01:36:00+09:00,0.2,�É�,0.8,���k��,6.3,81.3,0,0,0,0
2021-04-12T01:37:00+09:00,0.2,�É�,0.8,���k��,6.2,81.6,0,0,0,0
2021-04-12T01:38:00+09:00,0.2,�É�,0.8,���k��,6.2,82.2,0,0,0,0
2021-04-12T01:39:00+09:00,0.3,�k��,0.8,���k��,6.2,82.6,0,0,0,0
2021-04-12T01:40:00+09:00,0.3,�k��,0.8,���k��,6.3,83,0,0,0,0
2021-04-12T01:41:00+09:00,0.3,���k��,0.8,���k��,6.3,82.8,0,0,0,0
2021-04-12T01:42:00+09:00,0.3,���k��,0.8,���k��,6.3,82.9,0,0,0,0
2021-04-12T01:43:00+09:00,0.3,��,0.8,���k��,6.3,82.7,0,0,0,0
2021-04-12T01:44:00+09:00,0.4,���k��,0.8,���k��,6.2,82.4,0,0,0,0
2021-04-12T01:45:00+09:00,0.3,���k��,0.8,���k��,6.1,82.5,0,0,0,0
2021-04-12T01:46:00+09:00,0.3,���k��,0.7,���k��,6.1,82.5,0,0,0,0
2021-04-12T01:47:00+09:00,0.3,���k��,0.6,���k��,6,82.7,0,0,0,0
2021-04-12T01:48:00+09:00,0.3,���k��,0.6,���k��,6.1,83.1,0,0,0,0
2021-04-12T01:49:00+09:00,0.3,���k��,0.6,���k��,6.3,83.9,0,0,0,0
2021-04-12T01:50:00+09:00,0.2,�É�,0.6,���k��,6.5,84,0,0,0,0
2021-04-12T01:51:00+09:00,0.2,�É�,0.6,���k��,6.5,83.6,0,0,0,0
2021-04-12T01:52:00+09:00,0.2,�É�,0.6,���k��,6.4,82.8,0,0,0,0
2021-04-12T01:53:00+09:00,0.2,�É�,0.6,���k��,6.3,82.5,0,0,0,0
2021-04-12T01:54:00+09:00,0.2,�É�,0.6,���k��,6.3,82.5,0,0,0,0
2021-04-12T01:55:00+09:00,0.2,�É�,0.6,���k��,6.4,82.8,0,0,0,0
2021-04-12T01:56:00+09:00,0.2,�É�,0.7,��,6.3,82.6,0,0,0,0
2021-04-12T01:57:00+09:00,0.2,�É�,0.7,��,6.3,82.5,0,0,0,0
2021-04-12T01:58:00+09:00,0.2,�É�,0.7,��,6.2,82.3,0,0,0,0
2021-04-12T01:59:00+09:00,0.2,�É�,0.7,��,6.1,81.7,0,0,0,0
2021-04-12T02:00:00+09:00,0.3,���k��,0.9,���k��,6,81.6,0,0,0,0
2021-04-12T02:01:00+09:00,0.3,���k��,0.9,���k��,5.9,81.9,0,0,0,0
2021-04-12T02:02:00+09:00,0.4,���k��,1,���k��,5.9,82.4,0,0,0,0
2021-04-12T02:03:00+09:00,0.4,���k��,1,���k��,5.9,83,0,0,0,0
2021-04-12T02:04:00+09:00,0.5,���k��,1,���k��,5.9,83.2,0,0,0,0
2021-04-12T02:05:00+09:00,0.5,���k��,1,���k��,5.8,83.4,0,0,0,0
2021-04-12T02:06:00+09:00,0.5,���k��,1,���k��,5.8,83.7,0,0,0,0
2021-04-12T02:07:00+09:00,0.5,���k��,1,���k��,5.8,83.9,0,0,0,0
2021-04-12T02:08:00+09:00,0.5,���k��,1,���k��,5.8,84.1,0,0,0,0
2021-04-12T02:09:00+09:00,0.5,���k��,1,���k��,5.7,84,0,0,0,0
2021-04-12T02:10:00+09:00,0.5,���k��,1,���k��,5.7,84.2,0,0,0,0
2021-04-12T02:11:00+09:00,0.5,���k��,1,���k��,5.8,84.4,0,0,0,0
2021-04-12T02:12:00+09:00,0.5,���k��,0.9,��,5.8,84.7,0,0,0,0
2021-04-12T02:13:00+09:00,0.4,���k��,0.9,��,5.9,84.9,0,0,0,0
2021-04-12T02:14:00+09:00,0.4,���k��,0.8,��,5.9,84.2,0,0,0,0
2021-04-12T02:15:00+09:00,0.4,���k��,0.8,��,5.8,84.2,0,0,0,0
2021-04-12T02:16:00+09:00,0.4,���k��,0.9,��,5.7,84.2,0,0,0,0
2021-04-12T02:17:00+09:00,0.4,���k��,0.9,��,5.7,84.1,0,0,0,0
2021-04-12T02:18:00+09:00,0.5,���k��,0.9,��,5.7,84.2,0,0,0,0
2021-04-12T02:19:00+09:00,0.5,���k��,0.9,��,5.7,84.3,0,0,0,0
2021-04-12T02:20:00+09:00,0.5,��,1,���쓌,5.7,84.5,0,0,0,0
2021-04-12T02:21:00+09:00,0.6,��,1,���쓌,5.7,84.9,0,0,0,0
2021-04-12T02:22:00+09:00,0.6,��,1,���쓌,5.8,84.8,0,0,0,0
2021-04-12T02:23:00+09:00,0.6,��,1,���쓌,5.7,84.7,0,0,0,0
2021-04-12T02:24:00+09:00,0.6,��,1,���쓌,5.8,84.6,0,0,0,0
2021-04-12T02:25:00+09:00,0.5,���쓌,1,���쓌,5.9,84.5,0,0,0,0
2021-04-12T02:26:00+09:00,0.5,���쓌,1.1,��쓌,5.8,84.8,0,0,0,0
2021-04-12T02:27:00+09:00,0.5,�쓌,1.1,��쓌,5.7,84.9,0,0,0,0
2021-04-12T02:28:00+09:00,0.5,�쓌,1.4,��,5.7,85.2,0,0,0,0
2021-04-12T02:29:00+09:00,0.5,��쓌,1.4,��,5.6,85.6,0,0,0,0
2021-04-12T02:30:00+09:00,0.5,��쓌,1.5,��,5.5,85.6,0,0,0,0
2021-04-12T02:31:00+09:00,0.5,��쓌,1.5,��,5.5,86,0,0,0,0
2021-04-12T02:32:00+09:00,0.5,��,1.5,��,5.5,86.5,0,0,0,0
2021-04-12T02:33:00+09:00,0.6,��,1.5,��,5.5,86.9,0,0,0,0
2021-04-12T02:34:00+09:00,0.6,��,1.5,��,5.7,87.5,0,0,0,0
2021-04-12T02:35:00+09:00,0.6,��쓌,1.5,��,5.6,87.2,0,0,0,0
2021-04-12T02:36:00+09:00,0.6,��쓌,1.5,��,5.5,87.2,0,0,0,0
2021-04-12T02:37:00+09:00,0.6,��쓌,1.5,��,5.6,87.3,0,0,0,0
2021-04-12T02:38:00+09:00,0.6,��쓌,1.5,��,5.7,87.9,0,0,0,0
2021-04-12T02:39:00+09:00,0.5,�쓌,1.5,��,5.7,87.7,0,0,0,0
2021-04-12T02:40:00+09:00,0.5,�쓌,1.2,�쓌,5.7,87.3,0,0,0,0
2021-04-12T02:41:00+09:00,0.5,�쓌,1.2,�쓌,5.6,86.4,0,0,0,0
2021-04-12T02:42:00+09:00,0.5,���쓌,1.2,�쓌,5.5,85.9,0,0,0,0
2021-04-12T02:43:00+09:00,0.5,���쓌,1.2,�쓌,5.5,85.7,0,0,0,0
2021-04-12T02:44:00+09:00,0.5,���쓌,1.1,���k��,5.5,85.6,0,0,0,0
2021-04-12T02:45:00+09:00,0.5,��,1.1,���k��,5.4,85.5,0,0,0,0
2021-04-12T02:46:00+09:00,0.6,��,1.1,���k��,5.5,85.7,0,0,0,0
2021-04-12T02:47:00+09:00,0.6,��,1.1,���k��,5.4,85.7,0,0,0,0
2021-04-12T02:48:00+09:00,0.6,��,1.1,���k��,5.4,85.6,0,0,0,0
2021-04-12T02:49:00+09:00,0.6,���k��,1.1,���k��,5.4,85.9,0,0,0,0
2021-04-12T02:50:00+09:00,0.6,���k��,1.1,���k��,5.4,85.8,0,0,0,0
2021-04-12T02:51:00+09:00,0.6,���k��,1.1,���k��,5.5,86.1,0,0,0,0
2021-04-12T02:52:00+09:00,0.6,���k��,1.1,���k��,5.6,86.3,0,0,0,0
2021-04-12T02:53:00+09:00,0.5,���k��,1.1,���k��,5.7,86,0,0,0,0
2021-04-12T02:54:00+09:00,0.5,���k��,1,���k��,5.9,86,0,0,0,0
2021-04-12T02:55:00+09:00,0.4,���k��,1,���k��,6,85.9,0,0,0,0
2021-04-12T02:56:00+09:00,0.3,���k��,0.8,���k��,6,85.3,0,0,0,0
2021-04-12T02:57:00+09:00,0.2,�É�,0.8,���k��,6,85.1,0,0,0,0
2021-04-12T02:58:00+09:00,0.2,�É�,0.8,���k��,6.1,84.9,0,0,0,0
2021-04-12T02:59:00+09:00,0.1,�É�,0.5,���k��,6.2,84.7,0,0,0,0
2021-04-12T03:00:00+09:00,0.1,�É�,0.5,���k��,6.2,84.3,0,0,0,0
2021-04-12T03:01:00+09:00,0.1,�É�,0.4,���k��,6.1,83.5,0,0,0,0
2021-04-12T03:02:00+09:00,0.1,�É�,0.4,���k��,6.1,83.2,0,0,0,0
2021-04-12T03:03:00+09:00,0.1,�É�,0.4,��쐼,6.2,83.5,0,0,0,0
2021-04-12T03:04:00+09:00,0.1,�É�,0.4,��쐼,6,82.5,0,0,0,0
2021-04-12T03:05:00+09:00,0.1,�É�,0.4,��쐼,5.8,82.4,0,0,0,0
2021-04-12T03:06:00+09:00,0.1,�É�,0.4,��쐼,5.9,82.6,0,0,0,0
2021-04-12T03:07:00+09:00,0.1,�É�,0.6,��쐼,5.9,83.3,0,0,0,0
2021-04-12T03:08:00+09:00,0.1,�É�,0.6,��쐼,5.9,83.2,0,0,0,0
2021-04-12T03:09:00+09:00,0.2,�É�,0.6,��쐼,5.9,83.4,0,0,0,0
2021-04-12T03:10:00+09:00,0.2,�É�,0.6,��쐼,5.9,83.7,0,0,0,0
2021-04-12T03:11:00+09:00,0.2,�É�,0.6,��쐼,5.8,84,0,0,0,0
2021-04-12T03:12:00+09:00,0.2,�É�,0.6,��쐼,5.7,83.7,0,0,0,0
2021-04-12T03:13:00+09:00,0.2,�É�,0.6,��쐼,5.8,84.4,0,0,0,0
2021-04-12T03:14:00+09:00,0.2,�É�,0.6,��쐼,6,85.2,0,0,0,0
2021-04-12T03:15:00+09:00,0.2,�É�,0.6,��쐼,6,85.3,0,0,0,0
2021-04-12T03:16:00+09:00,0.2,�É�,0.6,��쐼,6,85,0,0,0,0
2021-04-12T03:17:00+09:00,0.2,�É�,0.4,��쐼,6,85.1,0,0,0,0
2021-04-12T03:18:00+09:00,0.2,�É�,0.4,��쐼,5.9,84.4,0,0,0,0
2021-04-12T03:19:00+09:00,0.1,�É�,0.4,��쐼,5.9,84.6,0,0,0,0
2021-04-12T03:20:00+09:00,0.1,�É�,0.4,��쐼,6,84.8,0,0,0,0
2021-04-12T03:21:00+09:00,0.1,�É�,0.4,��쐼,5.9,84.1,0,0,0,0
2021-04-12T03:22:00+09:00,0.1,�É�,0.4,��쐼,6,83.8,0,0,0,0
2021-04-12T03:23:00+09:00,0.1,�É�,0.3,��쐼,6.1,84,0,0,0,0
2021-04-12T03:24:00+09:00,0.1,�É�,0.3,��쐼,6.1,84.1,0,0,0,0
2021-04-12T03:25:00+09:00,0.1,�É�,0.3,��쐼,5.9,83.7,0,0,0,0
2021-04-12T03:26:00+09:00,0.1,�É�,0.5,��쓌,6,83.8,0,0,0,0
2021-04-12T03:27:00+09:00,0.1,�É�,0.5,��쓌,5.8,83.7,0,0,0,0
2021-04-12T03:28:00+09:00,0.1,�É�,0.5,��쓌,5.7,83.1,0,0,0,0
2021-04-12T03:29:00+09:00,0.1,�É�,0.5,��쓌,5.5,83,0,0,0,0
2021-04-12T03:30:00+09:00,0.2,�É�,0.9,���k��,5.3,83.1,0,0,0,0
2021-04-12T03:31:00+09:00,0.2,�É�,0.9,���k��,5.3,83.9,0,0,0,0
2021-04-12T03:32:00+09:00,0.3,�쓌,0.9,���k��,5.2,84.6,0,0,0,0
2021-04-12T03:33:00+09:00,0.3,��,0.9,���k��,5.2,85.3,0,0,0,0
2021-04-12T03:34:00+09:00,0.3,��,0.9,���k��,5.4,85.9,0,0,0,0
2021-04-12T03:35:00+09:00,0.3,���k��,0.9,���k��,5.4,86.5,0,0,0,0
2021-04-12T03:36:00+09:00,0.3,���k��,0.9,���k��,5.6,86.4,0,0,0,0
2021-04-12T03:37:00+09:00,0.3,���k��,0.9,���k��,5.7,87.1,0,0,0,0
2021-04-12T03:38:00+09:00,0.2,�É�,0.9,���k��,5.8,86.9,0,0,0,0
2021-04-12T03:39:00+09:00,0.3,���k��,0.9,���k��,5.6,85.8,0,0,0,0
2021-04-12T03:40:00+09:00,0.2,�É�,0.8,�k��,5.5,84.9,0,0,0,0
2021-04-12T03:41:00+09:00,0.2,�É�,0.6,���k��,5.6,85.6,0,0,0,0
2021-04-12T03:42:00+09:00,0.1,�É�,0.5,���k��,5.7,86,0,0,0,0
2021-04-12T03:43:00+09:00,0.1,�É�,0.5,���k��,5.7,85.5,0,0,0,0
2021-04-12T03:44:00+09:00,0.1,�É�,0.4,�쓌,5.7,85.5,0,0,0,0
2021-04-12T03:45:00+09:00,0.1,�É�,0.4,�쓌,5.7,85.1,0,0,0,0
2021-04-12T03:46:00+09:00,0.1,�É�,0.4,�쓌,5.7,85,0,0,0,0
2021-04-12T03:47:00+09:00,0.1,�É�,0.4,�쓌,5.7,85,0,0,0,0
2021-04-12T03:48:00+09:00,0.1,�É�,0.4,�쓌,5.7,84.8,0,0,0,0
2021-04-12T03:49:00+09:00,0.1,�É�,0.3,��,5.9,85.3,0,0,0,0
2021-04-12T03:50:00+09:00,0.1,�É�,0.3,��,5.9,84.8,0,0,0,0
2021-04-12T03:51:00+09:00,0.1,�É�,0.3,��,5.8,84.7,0,0,0,0
2021-04-12T03:52:00+09:00,0.1,�É�,0.4,��쐼,5.5,83.8,0,0,0,0
2021-04-12T03:53:00+09:00,0.1,�É�,0.4,��쐼,5.5,84,0,0,0,0
2021-04-12T03:54:00+09:00,0.1,�É�,0.4,��쐼,5.5,84.9,0,0,0,0
2021-04-12T03:55:00+09:00,0.1,�É�,0.6,��쐼,5.5,84.7,0,0,0,0
2021-04-12T03:56:00+09:00,0.2,�É�,0.6,��쐼,5.4,84.9,0,0,0,0
2021-04-12T03:57:00+09:00,0.1,�É�,0.6,��쐼,5.6,85.9,0,0,0,0
2021-04-12T03:58:00+09:00,0.1,�É�,0.6,��쐼,5.5,85.5,0,0,0,0
2021-04-12T03:59:00+09:00,0.1,�É�,0.6,��쐼,5.4,85.4,0,0,0,0
2021-04-12T04:00:00+09:00,0.1,�É�,0.6,��쐼,5.6,86.2,0,0,0,0
2021-04-12T04:01:00+09:00,0.1,�É�,0.6,��쐼,5.7,86.3,0,0,0,0
2021-04-12T04:02:00+09:00,0.1,�É�,0.6,��쐼,5.6,86,0,0,0,0
2021-04-12T04:03:00+09:00,0.1,�É�,0.6,��쐼,5.6,85.6,0,0,0,0
2021-04-12T04:04:00+09:00,0.1,�É�,0.6,��쐼,5.5,85.5,0,0,0,0
2021-04-12T04:05:00+09:00,0.1,�É�,0.4,��,5.6,85.3,0,0,0,0
2021-04-12T04:06:00+09:00,0,�É�,0.3,��쐼,5.7,85.9,0,0,0,0
2021-04-12T04:07:00+09:00,0.1,�É�,0.3,��쐼,5.6,85.7,0,0,0,0
2021-04-12T04:08:00+09:00,0.1,�É�,0.3,��쐼,5.7,85.6,0,0,0,0
2021-04-12T04:09:00+09:00,0.1,�É�,0.3,��쐼,5.7,85.8,0,0,0,0
2021-04-12T04:10:00+09:00,0.1,�É�,0.3,��쐼,5.8,85.5,0,0,0,0
2021-04-12T04:11:00+09:00,0.1,�É�,0.3,��쐼,5.6,85.1,0,0,0,0
2021-04-12T04:12:00+09:00,0.1,�É�,0.3,��쐼,5.5,84.7,0,0,0,0
2021-04-12T04:13:00+09:00,0.1,�É�,0.3,�쐼,5.7,85.6,0,0,0,0
2021-04-12T04:14:00+09:00,0.1,�É�,0.3,�쐼,5.6,85.2,0,0,0,0
2021-04-12T04:15:00+09:00,0.1,�É�,0.3,�쐼,5.8,85.5,0,0,0,0
2021-04-12T04:16:00+09:00,0.1,�É�,0.3,�쐼,5.6,85,0,0,0,0
2021-04-12T04:17:00+09:00,0.1,�É�,0.3,�쐼,5.8,85.6,0,0,0,0
2021-04-12T04:18:00+09:00,0.1,�É�,0.3,�쐼,5.8,85.3,0,0,0,0
2021-04-12T04:19:00+09:00,0.1,�É�,0.3,�쐼,5.5,84.5,0,0,0,0
2021-04-12T04:20:00+09:00,0.1,�É�,0.3,�쐼,5.6,84.6,0,0,0,0
2021-04-12T04:21:00+09:00,0.1,�É�,0.3,�쐼,5.7,85.3,0,0,0,0
2021-04-12T04:22:00+09:00,0.1,�É�,0.3,�쐼,5.7,85.4,0,0,0,0
2021-04-12T04:23:00+09:00,0,�É�,0.3,��,5.5,84.7,0,0,0,0
2021-04-12T04:24:00+09:00,0.1,�É�,0.4,�k��,5.3,84.5,0,0,0,0
2021-04-12T04:25:00+09:00,0.1,�É�,0.6,���k��,5.4,85,0,0,0,0
2021-04-12T04:26:00+09:00,0.1,�É�,0.6,���k��,5.3,85.2,0,0,0,0
2021-04-12T04:27:00+09:00,0.1,�É�,0.6,���k��,5.3,85.6,0,0,0,0
2021-04-12T04:28:00+09:00,0.1,�É�,0.6,���k��,5.6,86.6,0,0,0,0
2021-04-12T04:29:00+09:00,0.1,�É�,0.6,���k��,5.6,86.7,0,0,0,0
2021-04-12T04:30:00+09:00,0.1,�É�,0.6,���k��,5.4,85.9,0,0,0,0
2021-04-12T04:31:00+09:00,0.1,�É�,0.6,���k��,5.3,85.7,0,0,0,0
2021-04-12T04:32:00+09:00,0.1,�É�,0.6,���k��,5.4,86.2,0,0,0,0
2021-04-12T04:33:00+09:00,0.1,�É�,0.6,���k��,5.6,87.1,0,0,0,0
2021-04-12T04:34:00+09:00,0.1,�É�,0.6,���k��,5.5,86.9,0,0,0,0
2021-04-12T04:35:00+09:00,0.1,�É�,0.7,�k�k��,5.6,87,0,0,0,0
2021-04-12T04:36:00+09:00,0.2,�É�,0.8,�k�k��,5.7,87.2,0,0,0,0
2021-04-12T04:37:00+09:00,0.2,�É�,0.8,�k�k��,5.8,87.1,0,0,0,0
2021-04-12T04:38:00+09:00,0.2,�É�,0.8,�k�k��,5.7,86.7,0,0,0,0
2021-04-12T04:39:00+09:00,0.3,���k��,0.8,�k�k��,5.8,86.5,0,0,0,0
2021-04-12T04:40:00+09:00,0.4,���k��,0.8,�k�k��,5.9,86.6,0,0,0,0
2021-04-12T04:41:00+09:00,0.4,�k��,0.8,�k�k��,5.9,86.1,0,0,0,0
2021-04-12T04:42:00+09:00,0.4,�k��,0.8,�k�k��,5.7,85.5,0,0,0,0
2021-04-12T04:43:00+09:00,0.4,�k��,0.8,�k�k��,5.8,85.5,0,0,0,0
2021-04-12T04:44:00+09:00,0.4,�k��,0.8,�k�k��,5.8,85.6,0,0,0,0
2021-04-12T04:45:00+09:00,0.4,�k��,0.8,�k�k��,5.7,85.2,0,0,0,0
2021-04-12T04:46:00+09:00,0.3,���k��,0.8,�k�k��,5.8,85.2,0,0,0,0
2021-04-12T04:47:00+09:00,0.3,���k��,0.8,�k�k��,5.6,84.9,0,0,0,0
2021-04-12T04:48:00+09:00,0.3,��,0.8,�k�k��,5.7,85.2,0,0,0,0
2021-04-12T04:49:00+09:00,0.3,��,0.8,���k��,5.7,85.3,0,0,0,0
2021-04-12T04:50:00+09:00,0.2,�É�,0.8,���k��,5.7,85.2,0,0,0,0
2021-04-12T04:51:00+09:00,0.2,�É�,0.8,���k��,5.8,85.5,0,0,0,0
2021-04-12T04:52:00+09:00,0.2,�É�,0.8,���k��,5.8,85.2,0,0,0,0
2021-04-12T04:53:00+09:00,0.2,�É�,0.8,���k��,5.7,85.2,0,0,0,0
2021-04-12T04:54:00+09:00,0.2,�É�,0.8,���k��,5.8,85.4,0,0,0,0
2021-04-12T04:55:00+09:00,0.2,�É�,0.8,���k��,5.8,85.4,0,0,0,0
2021-04-12T04:56:00+09:00,0.2,�É�,0.8,���k��,5.8,85.2,0,0,0,0
2021-04-12T04:57:00+09:00,0.2,�É�,0.8,���k��,5.6,84.6,0,0,0,0
2021-04-12T04:58:00+09:00,0.2,�É�,0.8,���k��,5.8,85.5,0,0,0,0
2021-04-12T04:59:00+09:00,0.1,�É�,0.6,�쐼,5.8,85.1,0,0,0,0
2021-04-12T05:00:00+09:00,0.2,�É�,0.7,���k��,5.8,84.9,0,0,0,0
2021-04-12T05:01:00+09:00,0.1,�É�,0.7,���k��,5.8,84.9,0,0,0,0
2021-04-12T05:02:00+09:00,0.1,�É�,0.7,���k��,5.7,84.7,0,0,0,0
2021-04-12T05:03:00+09:00,0.1,�É�,0.7,���k��,5.7,84.7,0,0,0,0
2021-04-12T05:04:00+09:00,0.1,�É�,0.7,���k��,5.5,84.5,0,0,0,0
2021-04-12T05:05:00+09:00,0.1,�É�,0.9,���k��,5.4,84.1,0,0,0,0
2021-04-12T05:06:00+09:00,0.2,�É�,0.9,���k��,5.2,84.4,0,0,0,0
2021-04-12T05:07:00+09:00,0.2,�É�,0.9,���k��,5.1,84.8,0,0,0,0
2021-04-12T05:08:00+09:00,0.3,�k,1,���k��,5,85,0,0,0,0
2021-04-12T05:09:00+09:00,0.4,�k�k��,1.1,���k��,5,85.5,0,0,0,0
2021-04-12T05:10:00+09:00,0.4,�k��,1.1,���k��,5,86.1,0,0,0,0
2021-04-12T05:11:00+09:00,0.4,�k��,1.1,���k��,5,86.7,0,0,0,0
2021-04-12T05:12:00+09:00,0.5,���k��,1.1,���k��,5,87.1,0,0,0,0
2021-04-12T05:13:00+09:00,0.5,���k��,1.1,���k��,5,87.1,0,0,0,0
2021-04-12T05:14:00+09:00,0.5,���k��,1.1,���k��,5.2,88,0,0,0,0
2021-04-12T05:15:00+09:00,0.5,���k��,1.1,���k��,5.3,87.8,0,0,0,0
2021-04-12T05:16:00+09:00,0.4,��,1.1,���k��,5.2,87.6,0,0,0,0
2021-04-12T05:17:00+09:00,0.4,��,1.1,���k��,5.2,87.4,0,0,0,0
2021-04-12T05:18:00+09:00,0.3,��,1.1,���k��,5.3,87.5,0,0,0,0
2021-04-12T05:19:00+09:00,0.3,��,0.9,���k��,5.2,87.5,0,0,0,0
2021-04-12T05:20:00+09:00,0.2,�É�,0.6,���k��,5.3,87.6,0,0,0,0
2021-04-12T05:21:00+09:00,0.2,�É�,0.7,���k��,5,86.8,0,0,0,0
2021-04-12T05:22:00+09:00,0.3,��,0.9,���k��,4.9,86.8,0,0,0,0
2021-04-12T05:23:00+09:00,0.3,��,0.9,���k��,4.9,87.1,0,0,0,0
2021-04-12T05:24:00+09:00,0.3,��,0.9,���k��,4.9,87.5,0,0,0,0
2021-04-12T05:25:00+09:00,0.3,��,0.9,���k��,5,88.3,0,0,0,0
2021-04-12T05:26:00+09:00,0.3,��,0.9,���k��,5,88.3,0,0,0,0
2021-04-12T05:27:00+09:00,0.3,��,0.9,���k��,4.9,87.9,0,0,0,0
2021-04-12T05:28:00+09:00,0.4,��,0.9,���k��,4.8,87.6,0,0,0,0
2021-04-12T05:29:00+09:00,0.4,��,0.9,���k��,4.8,87.9,0,0,0,0
2021-04-12T05:30:00+09:00,0.3,��,0.9,���k��,4.9,88.2,0,0,0,0
2021-04-12T05:31:00+09:00,0.3,��,0.9,���k��,5.1,88.9,0,0,0,0
2021-04-12T05:32:00+09:00,0.3,��,0.9,���k��,5.1,89,0,0,0,0
2021-04-12T05:33:00+09:00,0.2,�É�,0.6,��,5.2,88.8,0,0,0,0
2021-04-12T05:34:00+09:00,0.2,�É�,0.6,��,5.1,88.7,0,0,0,0
2021-04-12T05:35:00+09:00,0.2,�É�,0.6,��,5.2,88.2,0,0,0,0
2021-04-12T05:36:00+09:00,0.2,�É�,0.6,��,5.2,88.1,0,0,0,0
2021-04-12T05:37:00+09:00,0.2,�É�,0.6,��,5.1,87.7,0,0,0,0
2021-04-12T05:38:00+09:00,0.2,�É�,0.6,��,4.9,87.1,0,0,0,0
2021-04-12T05:39:00+09:00,0.2,�É�,0.6,��,4.9,87.3,0,0,0,0
2021-04-12T05:40:00+09:00,0.2,�É�,0.6,��,4.9,87.4,0,0,0,0
2021-04-12T05:41:00+09:00,0.2,�É�,0.6,��,5,88,0,0,0,0
2021-04-12T05:42:00+09:00,0.1,�É�,0.6,��,5.1,88.7,0,0,0,0
2021-04-12T05:43:00+09:00,0.1,�É�,0.5,��쐼,5.1,88.5,0,0,0,0
2021-04-12T05:44:00+09:00,0.1,�É�,0.5,��쐼,5.2,88.6,0,0,0,0
2021-04-12T05:45:00+09:00,0.1,�É�,0.5,��쐼,5.2,88.4,0,0,0,0
2021-04-12T05:46:00+09:00,0.1,�É�,0.5,��쐼,5.3,88.5,0,0,0,0
2021-04-12T05:47:00+09:00,0.1,�É�,0.5,��쐼,5,87.7,0,0,0,0
2021-04-12T05:48:00+09:00,0.1,�É�,0.5,��쐼,4.9,86.8,0,0,0,0
2021-04-12T05:49:00+09:00,0,�É�,0.3,��,4.8,87,0,0,0,0
2021-04-12T05:50:00+09:00,0,�É�,0.3,��,4.8,87.3,0,0,0,0
2021-04-12T05:51:00+09:00,0,�É�,0.2,���k��,4.8,87.7,0,0,0,0
2021-04-12T05:52:00+09:00,0,�É�,0.4,���k��,4.8,88.4,0,0,0,0
2021-04-12T05:53:00+09:00,0,�É�,0.5,���k��,4.8,88.1,0,0,0,0
2021-04-12T05:54:00+09:00,0.1,�É�,0.5,���k��,4.7,88,0,0,0,0
2021-04-12T05:55:00+09:00,0.1,�É�,0.5,���k��,4.7,88.1,0,0,0,0
2021-04-12T05:56:00+09:00,0.1,�É�,0.5,���k��,4.6,88,0,0,0,0
2021-04-12T05:57:00+09:00,0.1,�É�,0.5,���k��,4.6,88.3,0,0,0,0
2021-04-12T05:58:00+09:00,0.1,�É�,0.5,���k��,4.7,88.9,0,0,0,0
2021-04-12T05:59:00+09:00,0.1,�É�,0.5,���k��,4.9,89.6,0,0,0,0
2021-04-12T06:00:00+09:00,0.1,�É�,0.5,���k��,4.9,89.5,0,0,0,0
2021-04-12T06:01:00+09:00,0.1,�É�,0.5,���k��,5,89.2,0,0,0,0
2021-04-12T06:02:00+09:00,0.1,�É�,0.5,���k��,5.1,89.7,0,0,0,0
2021-04-12T06:03:00+09:00,0.1,�É�,0.5,���k��,4.9,88.5,0,0,0,0
2021-04-12T06:04:00+09:00,0.1,�É�,0.7,��,4.7,87.7,0,0,0,0
2021-04-12T06:05:00+09:00,0.1,�É�,0.7,��,4.7,88,0,0,0,0
2021-04-12T06:06:00+09:00,0.1,�É�,0.7,��,4.9,88.9,0,0,0,0
2021-04-12T06:07:00+09:00,0.1,�É�,0.7,��,4.7,88.1,0,0,0,0
2021-04-12T06:08:00+09:00,0.2,�É�,0.7,��,4.7,88.1,0,0,0,0
2021-04-12T06:09:00+09:00,0.2,�É�,1,���k��,4.7,88.5,0,0,0,0
2021-04-12T06:10:00+09:00,0.3,���k��,1.2,��,4.6,88.1,0,0,0,0
2021-04-12T06:11:00+09:00,0.4,���k��,1.2,��,4.6,88.3,0,0,0,0
2021-04-12T06:12:00+09:00,0.4,���k��,1.2,��,4.5,88.5,0,0,0,0
2021-04-12T06:13:00+09:00,0.4,���k��,1.2,��,4.6,89,0,0,0,0
2021-04-12T06:14:00+09:00,0.4,���k��,1.2,��,4.7,89.4,0,0,0,0
2021-04-12T06:15:00+09:00,0.4,���k��,1.2,��,4.8,89.6,0,0,0,0
2021-04-12T06:16:00+09:00,0.4,���k��,1.2,��,4.8,89.7,0,0,0,0
2021-04-12T06:17:00+09:00,0.4,���k��,1.2,��,4.9,89.9,0,0,0,0
2021-04-12T06:18:00+09:00,0.4,���k��,1.2,��,4.8,89.4,0,0,0,0
2021-04-12T06:19:00+09:00,0.3,���k��,1.2,��,5.1,89.9,0,0,0,0
2021-04-12T06:20:00+09:00,0.3,���k��,1,��,5.1,89.6,0,0,0,0
2021-04-12T06:21:00+09:00,0.2,�É�,0.7,���k��,5.2,89.2,0,0,0,0
2021-04-12T06:22:00+09:00,0.2,�É�,0.5,��쐼,5.1,88.7,0,0,0,0
2021-04-12T06:23:00+09:00,0.2,�É�,0.5,��쐼,5.1,88.5,0,0,0,0
2021-04-12T06:24:00+09:00,0.2,�É�,0.5,��쐼,4.9,87.3,0,0,0,0
2021-04-12T06:25:00+09:00,0.1,�É�,0.5,��쐼,5,87.4,0,0,0,0
2021-04-12T06:26:00+09:00,0.2,�É�,0.7,�쓌,5,88.3,0,0,0,0
2021-04-12T06:27:00+09:00,0.2,�É�,0.7,�쓌,5,87.7,0,0,0,0
2021-04-12T06:28:00+09:00,0.2,�É�,0.7,�쓌,5.2,88.1,0,0,0,0
2021-04-12T06:29:00+09:00,0.2,�É�,0.7,�쓌,5.2,88.3,0,0,0,0
2021-04-12T06:30:00+09:00,0.2,�É�,0.7,�쓌,5.4,88.5,0,0,0,0
2021-04-12T06:31:00+09:00,0.2,�É�,0.7,�쓌,5.3,87.6,0,0,0,0
2021-04-12T06:32:00+09:00,0.1,�É�,0.7,�쓌,5.4,87.4,0,0,0,0
2021-04-12T06:33:00+09:00,0.1,�É�,0.7,�쓌,5.6,87.6,0,0,0,0
2021-04-12T06:34:00+09:00,0.1,�É�,0.7,�쓌,5.7,87.7,0,0,0,0
2021-04-12T06:35:00+09:00,0.2,�É�,0.7,�쓌,5.6,86.8,0,0,0,0
2021-04-12T06:36:00+09:00,0.1,�É�,0.7,��,5.7,86.4,0,0,0,0
2021-04-12T06:37:00+09:00,0.1,�É�,0.7,��,5.8,86.3,0,0,0,0